Terminal Aerodrome Forecast
Issued by NWS Grand Forks, ND

Home | Current Version | Previous Version | Graphics & Text | Print | Product List | Glossary On
Versions: 1 2 3 4 5 6 7 8 9 10 11 12 13 14 15 16 17 18 19
000
FTUS43 KFGF 031122
TAFGFK
TAF
KGFK 031122Z 0312/0412 VRB04KT 4SM BR BKN050
      TEMPO 0312/0313 2SM BR BKN025
     FM031400 VRB05KT P6SM BKN050
      TEMPO 0314/0318 5SM FU=

USA.gov is the U.S. government's official web portal to all federal, state and local government web resources and services.